Regional Weather Roundup
Issued by NWS

Home | Current Version | Previous Version | Text Only | Print | Product List | Glossary Off
Versions: 1 2 3 4 5 6 7 8 9 10 11 12 13 14 15 16 17 18 19 20 21 22 23 24 25 26 27 28 29 30 31 32 33 34 35 36 37 38 39 40 41 42 43 44 45 46 47 48 49 50

000
ASUS45 KABQ 271810
RWRNM
WEATHER ROUNDUP FOR NEW MEXICO
NATIONAL WEATHER SERVICE ALBUQUERQUE NM
1100 AM MST TUE JAN 27 2015

NOTE: "FAIR" MEANS FEW OR NO CLOUDS BELOW 12,000 FEET AGL WITH NO
       SIGNIFICANT WEATHER OR OBSTRUCTIONS TO VISION.

      THIS PRODUCT IS RELEASED AS TWO VERSIONS.  ONE VERSION NEAR
      THE TOP OF THE HOUR CONTAINING PRELIMINARY DATA FROM ALBUQUERQUE
      AND OTHER STATIONS.  A FINAL VERSION WITH ADDITIONAL DATA IS
      ISSUED ABOUT 10 MINUTES AFTER THE HOUR.

NMZ501-503-504-510>518-271900-
NORTHWEST PLATEAU/NORTHCENTRAL MOUNTAINS

CITY           SKY/WX    TMP DP  RH WIND       PRES   REMARKS
FARMINGTON     CLOUDY    46  27  47 NE6       30.35F
6HR MIN TEMP:  28; 6HR MAX TEMP:  46;

LOS ALAMOS     SUNNY     43  29  56 CALM      30.40F
SANTA FE       SUNNY     47  26  44 N16G22    30.36F
6HR MIN TEMP:  30; 6HR MAX TEMP:  47;

TAOS           SUNNY     45  27  49 CALM      30.40F
ANGEL FIRE     FAIR      35  24  63 CALM      30.40F

$$
NMZ402-403-502-505>509-271900-
WESTCENTRAL MOUNTAINS/SOUTHWEST MOUNTAINS

CITY           SKY/WX    TMP DP  RH WIND       PRES   REMARKS
GALLUP         SUNNY     50  31  48 VRB5      30.39F
6HR MIN TEMP:  26; 6HR MAX TEMP:  50;

GRANTS         CLOUDY    41  28  60 CALM      30.41F
SILVER CITY    SUNNY     57  37  47 CALM      30.37F

$$
NMZ407-409-411-412-271900-
SOUTHERN DESERTS

CITY           SKY/WX    TMP DP  RH WIND       PRES   REMARKS
LORDSBURG      FAIR      57  30  35 CALM      30.33F
DEMING         SUNNY     59  30  33 NE5       30.33F
6HR MIN TEMP:  41; 6HR MAX TEMP:  60;

LAS CRUCES     SUNNY     57  33  39 CALM      30.35F
HOLLOMAN AFB   MOSUNNY   54  33  44 VRB1      30.33F
ALAMOGORDO     SUNNY     55  30  38 E3        30.35F
T OR C         SUNNY     56  29  35 CALM      30.34F
6HR MIN TEMP:  42; 6HR MAX TEMP:  56;


$$
NMZ519>523-271900-
CENTRAL VALLEYS/CENTRAL HIGHLANDS

CITY           SKY/WX    TMP DP  RH WIND       PRES   REMARKS
ALBUQUERQUE    PTSUNNY   45  28  51 CALM      30.38S
6HR MIN TEMP:  27; 6HR MAX TEMP:  46;

DOUBLE EAGLE   PTSUNNY   48  28  46 CALM      30.39S
MORIARTY ARPT  FAIR      51  30  45 CALM      30.38F
6HR MIN TEMP:  22; 6HR MAX TEMP:  51;

CLINES CORNERS SUNNY     51  26  37 W16       30.35S
6HR MIN TEMP:  34; 6HR MAX TEMP:  52;

BELEN          CLOUDY    45  33  63 E7        30.38F
6HR MIN TEMP:  24; 6HR MAX TEMP:  45;

SOCORRO        FAIR      50  29  44 NW6       30.37F
6HR MIN TEMP:  35; 6HR MAX TEMP:  50;


$$
NMZ524>526-539-540-271900-
SOUTHCENTRAL MOUNTAINS

CITY           SKY/WX    TMP DP  RH WIND       PRES   REMARKS
RUIDOSO        SUNNY     55  27  33 NE7       30.39F

$$
NMZ527>531-271900-
NORTHEAST HIGHLANDS/NORTHEAST PLAINS

CITY           SKY/WX    TMP DP  RH WIND       PRES   REMARKS
LAS VEGAS      PTSUNNY   56  27  32 S13       30.31F
6HR MIN TEMP:  29; 6HR MAX TEMP:  56;

RATON          MOSUNNY   52  24  33 S3        30.28F
6HR MIN TEMP:  26; 6HR MAX TEMP:  53;

CLAYTON        MOSUNNY   67  27  22 SW13      30.23F
6HR MIN TEMP:  42; 6HR MAX TEMP:  67;


$$
NMZ532>537-271900-
EASTCENTRAL PLAINS

CITY           SKY/WX    TMP DP  RH WIND       PRES   REMARKS
TUCUMCARI      MOSUNNY   58  34  40 W6        30.25F
CANNON AFB     MOSUNNY   64  30  27 SW8       30.27F
6HR MIN TEMP:  35; 6HR MAX TEMP:  64;

CLOVIS AIRPORT SUNNY     63  34  34 SW8       30.28F

$$
NMZ028-029-538-271900-
SOUTHEAST PLAINS

CITY           SKY/WX    TMP DP  RH WIND       PRES   REMARKS
ROSWELL        SUNNY     55  37  50 E5        30.29F
6HR MIN TEMP:  29; 6HR MAX TEMP:  55;

ARTESIA        SUNNY     55  37  50 CALM      30.30F
CARLSBAD       CLOUDY    61  33  35 CALM      30.29F
6HR MIN TEMP:  33; 6HR MAX TEMP:  61;

HOBBS          SUNNY     64  32  29 CALM      30.29F


$$


USA.gov is the U.S. government's official web portal to all federal, state and local government web resources and services.